Regional Weather Roundup
Issued by NWS Cleveland, OH

Home | Current Version | Previous Version | Text Only | Print | Product List | Glossary On
Versions: 1 2 3 4 5 6 7 8 9 10 11 12 13 14 15 16 17 18 19 20 21 22 23 24 25 26 27 28 29 30 31 32 33 34 35 36 37 38 39 40 41 42 43 44 45 46 47 48 49 50
000
ASUS41 KCLE 221710
RWRCLE
OHIO REGIONAL WEATHER ROUNDUP
NATIONAL WEATHER SERVICE CLEVELAND, OH
100 PM EDT FRI MAY 22 2015

NOTE: "FAIR" INDICATES FEW OR NO CLOUDS BELOW 12,000 FEET WITH NO
SIGNIFICANT WEATHER AND/OR OBSTRUCTIONS TO VISIBILITY.

OHZ001>008-015>018-024>027-034-035-043-044-221800-
   NORTHWEST OHIO

CITY           SKY/WX    TMP DP  RH WIND       PRES   REMARKS
DEFIANCE       SUNNY     67  33  28 NW8       30.20R
FINDLAY        SUNNY     67  30  25 VRB5      30.19R
TOLEDO EXPRESS SUNNY     64  27  24 NW6       30.19R
TOLEDO EXEC    SUNNY     65  27  23 N10       30.20R
LIMA           SUNNY     64  43  46 MISG      30.19S
$$

OHZ009>014-019>023-028>033-038-089-221800-
   NORTHEAST OHIO

CITY           SKY/WX    TMP DP  RH WIND       PRES   REMARKS
CLE-HOPKINS    MOSUNNY   59  33  37 N16       30.20R
CLE-LAKEFRONT  SUNNY     57  38  48 W10       30.19R
CUY CO. ARPT   SUNNY     59  34  38 NW12      30.19R
LORAIN-ELYRIA  SUNNY     59  30  33 NW14G20   30.20R
ASHTABULA      SUNNY     58  28  32 NW14G20   30.16R
AKRON-CANTON   PTSUNNY   64  31  28 N14G24    30.16R
WOOSTER        MOSUNNY   66  28  24 NW17G25   30.19R
MANSFIELD      MOSUNNY   65  35  33 NW13      30.19R
YOUNGSTOWN     MOSUNNY   62  33  33 W14       30.13S
$$

OHZ042-051>053-060>062-070>072-077>081-221800-
  SOUTHWEST OHIO

CITY           SKY/WX    TMP DP  RH WIND       PRES   REMARKS
CINC-COVINGTON MOSUNNY   69  48  47 W12       30.22F
CINC-LUNKEN    SUNNY     70  49  47 SW12G17   30.22F
HAMILTON       SUNNY     72  49  44 VRB5      30.21F
DAYTON         MOSUNNY   71  48  43 W10       30.20S
WRIGHT-PAT AFB MOSUNNY   70  48  46 SW14      30.19S
DAYTON GENERAL SUNNY     68  49  50 SW10      30.20S
WILMINGTON     SUNNY     70  43  37 SW14G22   30.20F
$$

OHZ036-037-039>041-045>050-054>059-063>069-073>076-082>088-221800-
  CENTRAL AND SOUTHEAST OHIO

CITY           SKY/WX    TMP DP  RH WIND       PRES   REMARKS
COLUMBUS       MOSUNNY   68  48  48 W10       30.18S
OSU AIRPORT    MOSUNNY   69  47  45 NW8       30.18S
BOLTON FIELD   PTSUNNY   68  48  49 W10G16    30.19S
RICKENBACK AFB MOSUNNY   68  47  47 W8        30.18S
NEWARK         MOSUNNY   66  51  58 SW10G20   30.18S
MARION         SUNNY     65  41  41 VRB7      30.20R
LANCASTER      MOSUNNY   69  46  43 SW9       30.19S
ZANESVILLE     PTSUNNY   66  46  48 W10G20    30.18S
NEW PHILLY     PTSUNNY   67  45  45 W15       30.17R
$$



USA.gov is the U.S. government's official web portal to all federal, state and local government web resources and services.